Regional Weather Roundup
Issued by NWS

Home | Current Version | Previous Version | Graphics & Text | Print | Product List | Glossary On
Versions: 1 2 3 4 5 6 7 8 9 10 11 12 13 14 15 16 17 18 19 20 21 22 23 24 25 26 27 28 29 30 31 32 33 34 35 36 37 38 39 40 41 42 43 44 45 46 47 48 49 50
000
ASUS43 KIND 261209
RWRIN

WEATHER ROUNDUP FOR INDIANA
NATIONAL WEATHER SERVICE INDIANAPOLIS IN
800 AM EDT SUN APR 26 2015

NOTE: "FAIR" INDICATES FEW OR NO CLOUDS BELOW 12,000 FEET WITH NO
SIGNIFICANT WEATHER AND/OR OBSTRUCTIONS TO VISIBILITY.

* - STATION DOES NOT REPORT WEATHER SUCH AS PRECIPITATION OR FOG.

+ - STATION NOT QUALITY CONTROLLED BY THE NATIONAL WEATHER SERVICE.
    USE DATA WITH CAUTION...ESPECIALLY DEWPOINT AND RELATIVE
    HUMIDITY OBSERVATIONS.

INZ001>003-010>013-019-020-261300-
NORTHWEST INDIANA

CITY           SKY/WX    TMP DP  RH WIND       PRES   REMARKS
GARY /AIRPORT/ MOSUNNY   43  30  61 NE9G21    29.95R
KNOX *+        SUNNY     34  23  64 N9        29.91R WCI  26
LA PORTE +     SUNNY     38  30  72 NE7       29.94R
6HR MIN TEMP:  37; 6HR MAX TEMP:  41;

MICHIGAN CITY+ SUNNY     34  27  75 CALM      29.95R
MONTICELLO +   SUNNY     38  31  78 NE8       29.89R
6HR MIN TEMP:  35; 6HR MAX TEMP:  42;

VALPARAISO     SUNNY     37  29  72 N7        29.93R
6HR MIN TEMP:  34; 6HR MAX TEMP:  38;


$$

LMZ046-743>745-261300-
SOUTHERN LAKE MICHIGAN

STATION/POSITION TIME  TEMP    WIND        PRES    WAVE
                       AIR SEA DIR/SP/G            HT
                 (UTC) (F)     (DEG/KT/KT) (MB)    (FT)
BURNS HARBOR     1200   42      50/ 15/ 18 1014.2S
MICHIGAN CITY    1200   41      30/ 14/ 17   N/A
5NW MICH CITY    1200   42 45   70/ 14/ 17   N/A     4

$$

INZ004-005-014>016-021>024-261300-
NORTH CENTRAL INDIANA

CITY           SKY/WX    TMP DP  RH WIND       PRES   REMARKS
ELKHART        SUNNY     37  25  60 NE8       29.93
GOSHEN         SUNNY     36  28  73 NE9       29.91R
6HR MIN TEMP:  34; 6HR MAX TEMP:  38;

LOGANSPORT +   SUNNY     36  30  80 N6        29.89R
PERU/GRISSOM   SUNNY     37  30  75 NE10      29.87R
6HR MIN TEMP:  34; 6HR MAX TEMP:  42;

ROCHESTER +    SUNNY     39  32  75 NE6       29.90S
SOUTH BEND     SUNNY     38  27  64 NE7       29.94R
6HR MIN TEMP:  36; 6HR MAX TEMP:  42;

WARSAW +       SUNNY     36  30  80 NE8       29.90R

$$

INZ006>009-017-018-025>027-261300-
NORTHEAST INDIANA

CITY           SKY/WX    TMP DP  RH WIND       PRES   REMARKS
ANGOLA *+      SUNNY     37  27  65 NE6       29.90R
AUBURN +       SUNNY     37  28  70 NE9       29.90R
FORT WAYNE     MOSUNNY   38  28  67 N10       29.89R
6HR MIN TEMP:  34; 6HR MAX TEMP:  41;

HUNTINGTON +   SUNNY     37  28  71 NE7       29.88R
6HR MIN TEMP:  35; 6HR MAX TEMP:  40;


$$

INZ028-029-035-036-043>045-051>053-261300-
WEST CENTRAL INDIANA

CITY           SKY/WX    TMP DP  RH WIND       PRES   REMARKS
CRAWFORDSVL +  SUNNY     38  29  70 N6        29.88R
6HR MIN TEMP:  36; 6HR MAX TEMP:  41;

GREENCASTLE +  SUNNY     39  30  70 N9        29.86R
LAFAYETTE      SUNNY     39  32  76 N7        29.90R
6HR MIN TEMP:  37; 6HR MAX TEMP:  43;

TERRE HAUTE    SUNNY     43  33  68 N9        29.88R
6HR MIN TEMP:  42; 6HR MAX TEMP:  46;


$$

INZ030>032-037>040-046>048-054>057-064-065-261300-
CENTRAL INDIANA

CITY           SKY/WX    TMP DP  RH WIND       PRES   REMARKS
CP ATTERBURY + SUNNY     41  32  70 N9        29.84R
COLUMBUS       SUNNY     41  32  70 N10       29.83R
FISHERS *+     SUNNY     39  32  75 NE7       29.86R
FRANKFORT +    SUNNY     39  33  78 N9        29.89R
6HR MIN TEMP:  38; 6HR MAX TEMP:  43;

GREENWOOD *+   SUNNY     41  30  65 NE12      29.84R
INDIANAPOLIS   MOSUNNY   42  31  64 N9        29.84R
6HR MIN TEMP:  39; 6HR MAX TEMP:  44;

-EAGLE CREEK   SUNNY     41  30  65 NE9       29.85R
6HR MIN TEMP:  38; 6HR MAX TEMP:  44;

KOKOMO *+      SUNNY     39  30  70 NE10      29.87S
6HR MIN TEMP:  36; 6HR MAX TEMP:  41;

MARION +       SUNNY     38  29  71 NE13      29.87R
MT COMFORT *+  SUNNY     41  28  60 N13       29.84S
SHELBYVILLE    SUNNY     43  33  68 N12       29.82R
6HR MIN TEMP:  42; 6HR MAX TEMP:  46;

ZIONSVILLE +   SUNNY     40  32  71 NE10      29.86R
6HR MIN TEMP:  39; 6HR MAX TEMP:  43;


$$

INZ033-034-041-042-049-050-058-059-261300-
EAST CENTRAL INDIANA

CITY           SKY/WX    TMP DP  RH WIND       PRES   REMARKS
MUNCIE         SUNNY     38  31  76 NE10      29.85R
6HR MIN TEMP:  37; 6HR MAX TEMP:  42;


$$

INZ060-061-067>069-081>083-085>088-261300-
SOUTHWEST INDIANA

CITY           SKY/WX    TMP DP  RH WIND       PRES   REMARKS
EVANSVILLE     CLOUDY    48  42  80 NE10      29.83R
6HR MIN TEMP:  48; 6HR MAX TEMP:  50;

HUNTINGBURG *+ CLOUDY    45  37  76 N9        29.82R
6HR MIN TEMP:  45; 6HR MAX TEMP:  46;

WASHINGTON +   CLOUDY    45  31  59 N9        29.84R
6HR MIN TEMP:  45; 6HR MAX TEMP:  47;


$$

INZ062-063-066-070>080-084-089>092-261300-
SOUTH CENTRAL AND SOUTHEAST INDIANA

CITY           SKY/WX    TMP DP  RH WIND       PRES   REMARKS
BEDFORD +      CLOUDY    43  32  65 N6        29.83R
BLOOMINGTON    MOSUNNY   43  33  68 N7        29.83R
6HR MIN TEMP:  42; 6HR MAX TEMP:  46;

MADISON *+     CLOUDY    43  32  65 N8        29.81R
NORTH VERNON + MOSUNNY   43  32  65 N7        29.81R
SEYMOUR +      CLOUDY    45  32  61 N9        29.82R

$$



USA.gov is the U.S. government's official web portal to all federal, state and local government web resources and services.